FW7234 Weather Reports


Display with metric or nautical units.
time (UTC)temp
F
wind
direction
speed
MPH
gust
MPH
rain 1hr
in
rain 24hr
in
rain mn
in
humidity
%
barometer
mb
20260506205928 105 216 1.0 5.0 0.00 0.00 0.00 43 1002.8
20260506202940 104 76 2.0 7.0 0.00 0.00 0.00 45 1003.2
20260506195924 103 262 3.0 7.0 0.00 0.00 0.00 49 1003.7
20260506192930 101 31 3.0 10.0 0.00 0.00 0.00 51 1004.3
20260506191418 101 73 5.0 9.0 0.00 0.00 0.00 53 1004.6
20260506185912 99 251 3.0 8.0 0.00 0.00 0.00 56 1004.9
20260506182935 98 68 7.0 10.0 0.00 0.00 0.00 59 1005.6
20260506175933 96 10 2.0 10.0 0.00 0.00 0.00 62 1005.9
20260506174429 95 274 2.0 7.0 0.00 0.00 0.00 64 1006.1
20260506165930 92 12 2.0 8.0 0.00 0.00 0.00 70 1006.5
20260506164415 91 347 0.0 8.0 0.00 0.00 0.00 71 1006.7
20260506155932 89 239 1.0 5.0 0.00 0.00 0.00 75 1007.1
20260506154425 88 221 1.0 6.0 0.00 0.00 0.00 76 1007.1
20260506152921 87 73 3.0 6.0 0.00 0.00 0.00 78 1007.1
20260506145936 84 51 1.0 5.0 0.00 0.00 0.00 82 1007.0
20260506144422 83 21 0.0 6.0 0.00 0.00 0.00 84 1007.1
20260506142925 82 90 2.0 4.0 0.00 0.00 0.00 85 1007.0
20260506135924 81 78 3.0 6.0 0.00 0.00 0.00 87 1006.9
20260506134416 81 81 3.0 7.0 0.00 0.00 0.00 87 1006.9
20260506131420 81 102 2.0 6.0 0.00 0.00 0.00 87 1006.7
20260506124421 81 87 2.0 5.0 0.00 0.00 0.00 87 1006.7
20260506121433 81 92 2.0 4.0 0.00 0.00 0.00 87 1006.4
20260506114436 80 97 1.0 6.0 0.00 0.00 0.00 87 1006.4
20260506112930 80 92 2.0 4.0 0.00 0.00 0.00 87 1006.4
20260506111419 80 75 2.0 6.0 0.00 0.00 0.00 87 1006.4
20260506104424 80 100 1.0 3.0 0.00 0.00 0.00 87 1006.2
20260506101425 80 68 3.0 8.0 0.00 0.00 0.00 86 1006.0
20260506094432 81 83 4.0 8.0 0.00 0.00 0.00 86 1006.1
20260506092013 81 94 2.0 8.0 0.00 0.00 0.00 86 1006.0
20260506085924 80 102 3.0 8.0 0.00 0.00 0.00 86 1006.1
20260506084420 80 91 3.0 6.0 0.00 0.00 0.00 86 1006.2
20260506081432 80 75 2.0 4.0 0.00 0.00 0.00 86 1006.2
20260506072920 80 89 3.0 8.0 0.00 0.00 0.00 86 1006.3
20260506071414 80 95 3.0 8.0 0.00 0.00 0.00 86 1006.5
20260506061428 80 79 1.0 7.0 0.00 0.00 0.00 87 1007.5
20260506042929 80 67 4.0 12.0 0.00 0.00 0.00 85 1007.4
20260506035932 80 85 7.0 13.0 0.00 0.00 0.00 84 1006.5
20260506032939 81 89 5.0 10.0 0.00 0.00 0.00 83 1006.7
20260506031430 81 80 7.0 12.0 0.00 0.00 0.00 82 1006.6
20260506025929 81 94 4.0 12.0 0.00 0.00 0.00 81 1006.5
20260506022933 81 91 6.0 13.0 0.00 0.00 0.00 80 1005.6
20260506021429 82 110 6.0 13.0 0.00 0.00 0.00 79 1005.4
20260506015927 82 108 6.0 15.0 0.00 0.00 0.00 79 1005.2
20260506012937 83 52 7.0 12.0 0.00 0.00 0.00 77 1004.8
20260506005928 84 54 9.0 14.0 0.00 0.00 0.00 75 1004.4
20260506002936 86 93 4.0 16.0 0.00 0.00 0.00 71 1003.8
20260505235925 88 94 7.0 17.0 0.00 0.00 0.00 68 1003.7
20260505232938 90 80 5.0 12.0 0.00 0.00 0.00 66 1003.5
20260505225933 93 181 6.0 12.0 0.00 0.00 0.00 62 1003.1
20260505222943 94 73 8.0 15.0 0.00 0.00 0.00 61 1003.3
20260505215920 96 88 4.0 11.0 0.00 0.00 0.00 58 1003.3